• în România
  • Lista ţărilor
  • Pe 7 zile
  • Temperatura apei
  • Hartă satelitară
  • Meteo pe hartă
  • Widget-uri
  • user-avatar
    Intrare

    Meteo pe oră la Moiseevka

    Astăzi, 19 Aprilie, Joi

    Timp Temperatura Precipitaţii Vânt Presiune Umiditate
    00:00 +6°C° 0,3 mm 5 m/s 742 mmHg 90%
    01:00 +6°C° 0,3 mm 5 m/s 742 mmHg 90%
    02:00 +7°C° 0 mm 3 m/s 742 mmHg 90%
    03:00 +6°C° 0,4 mm 4 m/s 742 mmHg 90%
    04:00 +6°C° 0,4 mm 5 m/s 742 mmHg 91%
    05:00 +6°C° 0,4 mm 5 m/s 742 mmHg 91%
    06:00 +5°C° 0,6 mm 5 m/s 742 mmHg 90%
    07:00 +5°C° 0,6 mm 5 m/s 742 mmHg 90%
    08:00 +5°C° 0 mm 5 m/s 742 mmHg 90%
    09:00 +6°C° 0,4 mm 5 m/s 742 mmHg 89%
    10:00 +6°C° 0,4 mm 5 m/s 743 mmHg 88%
    11:00 +6°C° 0,4 mm 4 m/s 743 mmHg 87%
    12:00 +7°C° 0,1 mm 5 m/s 743 mmHg 85%
    13:00 +7°C° 0,1 mm 5 m/s 743 mmHg 84%
    14:00 +8°C° 0,1 mm 5 m/s 743 mmHg 82%
    15:00 +8°C° 0 mm 4 m/s 744 mmHg 79%
    16:00 +10°C° 0 mm 4 m/s 744 mmHg 75%
    17:00 +10°C° 0 mm 4 m/s 744 mmHg 72%
    18:00 +10°C° 0 mm 4 m/s 744 mmHg 74%
    19:00 +8°C° 0 mm 4 m/s 745 mmHg 76%
    20:00 +8°C° 0 mm 3 m/s 745 mmHg 78%
    21:00 +7°C° 0 mm 3 m/s 745 mmHg 80%
    22:00 +7°C° 0 mm 3 m/s 746 mmHg 81%
    23:00 +7°C° 0 mm 3 m/s 746 mmHg 82%

    Mâine, 20 Aprilie, Vineri

    Timp Temperatura Precipitaţii Vânt Presiune Umiditate
    00:00 +5°C° 0 mm 3 m/s 746 mmHg 86%
    01:00 +5°C° 0 mm 3 m/s 747 mmHg 89%
    02:00 +4°C° 0 mm 3 m/s 747 mmHg 92%
    03:00 +4°C° 0 mm 3 m/s 747 mmHg 93%
    04:00 +4°C° 0 mm 3 m/s 747 mmHg 95%
    05:00 +3°C° 0 mm 3 m/s 747 mmHg 96%
    06:00 +4°C° 0 mm 3 m/s 748 mmHg 92%
    07:00 +5°C° 0 mm 3 m/s 748 mmHg 88%
    08:00 +7°C° 0 mm 3 m/s 748 mmHg 84%
    09:00 +8°C° 0 mm 3 m/s 748 mmHg 82%
    10:00 +8°C° 0 mm 3 m/s 748 mmHg 79%
    11:00 +9°C° 0 mm 3 m/s 748 mmHg 77%
    12:00 +10°C° 0 mm 3 m/s 748 mmHg 71%
    13:00 +12°C° 0 mm 2 m/s 748 mmHg 66%
    14:00 +13°C° 0 mm 2 m/s 748 mmHg 60%
    15:00 +13°C° 0 mm 2 m/s 748 mmHg 60%
    16:00 +13°C° 0 mm 2 m/s 747 mmHg 60%
    17:00 +13°C° 0 mm 2 m/s 747 mmHg 59%
    18:00 +12°C° 0 mm 2 m/s 746 mmHg 66%
    19:00 +9°C° 0 mm 2 m/s 746 mmHg 74%
    20:00 +8°C° 0 mm 2 m/s 745 mmHg 81%
    21:00 +8°C° 0 mm 2 m/s 744 mmHg 81%
    22:00 +8°C° 0 mm 3 m/s 744 mmHg 80%
    23:00 +8°C° 0 mm 3 m/s 743 mmHg 80%

    Poimâine, 21 Aprilie, Sâmbătă

    Timp Temperatura Precipitaţii Vânt Presiune Umiditate
    00:00 +8°C° 0 mm 3 m/s 742 mmHg 81%
    01:00 +7°C° 0 mm 4 m/s 741 mmHg 81%
    02:00 +8°C° 0 mm 4 m/s 740 mmHg 81%
    03:00 +7°C° 0 mm 4 m/s 739 mmHg 85%
    04:00 +7°C° 0 mm 4 m/s 738 mmHg 88%
    05:00 +7°C° 0 mm 4 m/s 737 mmHg 92%
    06:00 +8°C° 0 mm 5 m/s 736 mmHg 88%
    07:00 +10°C° 0 mm 5 m/s 735 mmHg 84%
    08:00 +11°C° 0 mm 6 m/s 734 mmHg 80%
    09:00 +11°C° 0,2 mm 6 m/s 734 mmHg 80%
    10:00 +11°C° 0,2 mm 6 m/s 733 mmHg 81%
    11:00 +13°C° 0,2 mm 6 m/s 732 mmHg 81%
    12:00 +12°C° 0,2 mm 7 m/s 732 mmHg 75%
    13:00 +12°C° 0,2 mm 7 m/s 732 mmHg 70%
    14:00 +12°C° 0,2 mm 8 m/s 732 mmHg 64%
    15:00 +11°C° 0 mm 8 m/s 732 mmHg 63%
    16:00 +10°C° 0 mm 7 m/s 733 mmHg 61%
    17:00 +9°C° 0 mm 7 m/s 733 mmHg 60%
    18:00 +8°C° 0 mm 6 m/s 734 mmHg 64%
    19:00 +7°C° 0 mm 5 m/s 734 mmHg 68%
    20:00 +6°C° 0 mm 4 m/s 735 mmHg 72%
    21:00 +6°C° 0 mm 4 m/s 735 mmHg 75%
    22:00 +5°C° 0 mm 4 m/s 735 mmHg 77%
    23:00 +5°C° 0 mm 4 m/s 735 mmHg 80%

    22 Aprilie, Duminică

    Timp Temperatura Precipitaţii Vânt Presiune Umiditate
    00:00 +5°C° 0,1 mm 4 m/s 736 mmHg 80%
    01:00 +5°C° 0,1 mm 4 m/s 736 mmHg 80%
    02:00 +5°C° 0,1 mm 4 m/s 736 mmHg 81%
    03:00 +5°C° 0,1 mm 4 m/s 737 mmHg 82%
    04:00 +4°C° 0,1 mm 4 m/s 737 mmHg 82%
    05:00 +4°C° 0,1 mm 4 m/s 737 mmHg 83%
    06:00 +4°C° 0,2 mm 4 m/s 737 mmHg 82%
    07:00 +4°C° 0,2 mm 4 m/s 738 mmHg 81%
    08:00 +5°C° 0,2 mm 4 m/s 738 mmHg 80%
    09:00 +5°C° 0,1 mm 4 m/s 738 mmHg 78%
    10:00 +6°C° 0,1 mm 4 m/s 738 mmHg 76%
    11:00 +6°C° 0,1 mm 4 m/s 738 mmHg 73%
    12:00 +7°C° 0,2 mm 4 m/s 738 mmHg 70%
    13:00 +8°C° 0,2 mm 4 m/s 738 mmHg 67%
    14:00 +10°C° 0,2 mm 4 m/s 738 mmHg 64%
    15:00 +8°C° 0,5 mm 4 m/s 738 mmHg 66%
    16:00 +8°C° 0,5 mm 4 m/s 738 mmHg 69%
    17:00 +8°C° 0,5 mm 3 m/s 738 mmHg 71%
    18:00 +7°C° 0,2 mm 3 m/s 739 mmHg 77%
    19:00 +6°C° 0,2 mm 2 m/s 739 mmHg 83%
    20:00 +6°C° 0,2 mm 1 m/s 740 mmHg 89%
    21:00 +5°C° 0 mm 1 m/s 740 mmHg 91%
    22:00 +4°C° 0 mm 1 m/s 740 mmHg 93%
    23:00 +3°C° 0 mm 1 m/s 741 mmHg 95%

    23 Aprilie, Luni

    Timp Temperatura Precipitaţii Vânt Presiune Umiditate
    00:00 +3°C° 0 mm 1 m/s 741 mmHg 94%
    01:00 +2°C° 0 mm 1 m/s 741 mmHg 93%
    02:00 +2°C° 0 mm 1 m/s 742 mmHg 93%
    03:00 +1°C° 0 mm 1 m/s 742 mmHg 91%
    04:00 +1°C° 0 mm 1 m/s 742 mmHg 90%
    05:00 +1°C° 0 mm 1 m/s 742 mmHg 89%
    06:00 +3°C° 0 mm 1 m/s 743 mmHg 81%
    07:00 +5°C° 0 mm 1 m/s 743 mmHg 73%
    08:00 +6°C° 0 mm 1 m/s 743 mmHg 64%
    09:00 +7°C° 0 mm 0 m/s 743 mmHg 59%
    10:00 +9°C° 0 mm 0 m/s 743 mmHg 53%
    11:00 +10°C° 0 mm 0 m/s 743 mmHg 47%
    12:00 +11°C° 0 mm 1 m/s 743 mmHg 46%
    13:00 +12°C° 0 mm 1 m/s 743 mmHg 44%
    14:00 +12°C° 0 mm 1 m/s 743 mmHg 43%
    15:00 +11°C° 0 mm 1 m/s 742 mmHg 44%
    16:00 +11°C° 0 mm 1 m/s 742 mmHg 45%
    17:00 +11°C° 0 mm 1 m/s 742 mmHg 46%
    18:00 +9°C° 0 mm 1 m/s 742 mmHg 52%
    19:00 +8°C° 0 mm 1 m/s 742 mmHg 57%
    20:00 +7°C° 0 mm 1 m/s 742 mmHg 62%
    21:00 +6°C° 0 mm 1 m/s 742 mmHg 65%
    22:00 +6°C° 0 mm 1 m/s 741 mmHg 67%
    23:00 +5°C° 0 mm 1 m/s 741 mmHg 70%

    24 Aprilie, Marţi

    Timp Temperatura Precipitaţii Vânt Presiune Umiditate
    00:00 +5°C° 0 mm 1 m/s 741 mmHg 72%
    01:00 +4°C° 0 mm 2 m/s 740 mmHg 75%
    02:00 +3°C° 0 mm 2 m/s 740 mmHg 77%
    03:00 +3°C° 0 mm 2 m/s 740 mmHg 77%
    04:00 +3°C° 0 mm 2 m/s 739 mmHg 78%
    05:00 +2°C° 0 mm 3 m/s 739 mmHg 78%
    06:00 +3°C° 0,2 mm 3 m/s 738 mmHg 77%
    07:00 +4°C° 0,2 mm 4 m/s 737 mmHg 75%
    08:00 +5°C° 0,2 mm 4 m/s 737 mmHg 73%
    09:00 +5°C° 0,8 mm 5 m/s 736 mmHg 76%
    10:00 +5°C° 0,8 mm 5 m/s 736 mmHg 80%
    11:00 +5°C° 0,8 mm 5 m/s 736 mmHg 84%
    12:00 +5°C° 0,7 mm 4 m/s 735 mmHg 86%
    13:00 +5°C° 0,7 mm 4 m/s 735 mmHg 88%
    14:00 +6°C° 0,7 mm 4 m/s 735 mmHg 90%
    15:00 +7°C° 0,1 mm 3 m/s 735 mmHg 90%
    16:00 +7°C° 0,1 mm 3 m/s 734 mmHg 90%
    17:00 +8°C° 0,1 mm 2 m/s 734 mmHg 90%
    18:00 +7°C° 0,2 mm 2 m/s 734 mmHg 92%
    19:00 +7°C° 0,2 mm 2 m/s 734 mmHg 94%
    20:00 +7°C° 0,2 mm 2 m/s 734 mmHg 96%
    21:00 +6°C° 0,1 mm 2 m/s 734 mmHg 96%
    22:00 +6°C° 0,1 mm 2 m/s 734 mmHg 96%
    23:00 +6°C° 0,1 mm 2 m/s 734 mmHg 96%
    Arată mai mult